| time (UTC) | temp F | wind direction | speed MPH | gust MPH | rain 1hr in | rain 24hr in | rain mn in | humidity % | barometer mb |
| 20260507011245 | 47 | 174 | 4.0 | 12.0 | 0.00 | 0.00 | 0.00 | 50 | 1016.7 |
| 20260507010744 | 47 | 208 | 2.0 | 15.0 | 0.00 | 0.00 | 0.00 | 50 | 1016.3 |
| 20260507010241 | 47 | 178 | 4.0 | 11.0 | 0.00 | 0.00 | 0.00 | 50 | 1016.7 |
| 20260507005738 | 48 | 284 | 3.0 | 12.0 | 0.00 | 0.00 | 0.00 | 49 | 1016.3 |
| 20260507005234 | 48 | 188 | 1.0 | 11.0 | 0.00 | 0.00 | 0.00 | 50 | 1016.6 |
| 20260507004731 | 48 | 222 | 8.0 | 18.0 | 0.00 | 0.00 | 0.00 | 48 | 1016.3 |
| 20260507004229 | 48 | 23 | 3.0 | 16.0 | 0.00 | 0.00 | 0.00 | 49 | 1016.2 |
| 20260507003725 | 49 | 214 | 4.0 | 22.0 | 0.00 | 0.00 | 0.00 | 48 | 1016.1 |
| 20260507003220 | 49 | 213 | 2.0 | 15.0 | 0.00 | 0.00 | 0.00 | 47 | 1016.0 |
| 20260507002716 | 50 | 263 | 8.0 | 17.0 | 0.00 | 0.00 | 0.00 | 47 | 1016.1 |
| 20260507002213 | 50 | 222 | 8.0 | 25.0 | 0.00 | 0.00 | 0.00 | 46 | 1016.2 |
| 20260507001709 | 50 | 220 | 12.0 | 18.0 | 0.00 | 0.00 | 0.00 | 46 | 1016.0 |
| 20260507001207 | 50 | 268 | 9.0 | 15.0 | 0.00 | 0.00 | 0.00 | 47 | 1016.0 |
| 20260507000703 | 50 | 225 | 10.0 | 21.0 | 0.00 | 0.00 | 0.00 | 47 | 1016.0 |
| 20260507000159 | 50 | 269 | 3.0 | 22.0 | 0.00 | 0.00 | 0.00 | 47 | 1016.0 |
| 20260506235656 | 50 | 275 | 4.0 | 22.0 | 0.00 | 0.00 | 0.00 | 49 | 1015.8 |
| 20260506235151 | 51 | 224 | 10.0 | 13.0 | 0.00 | 0.00 | 0.00 | 47 | 1015.5 |
| 20260506234649 | 51 | 225 | 11.0 | 17.0 | 0.00 | 0.00 | 0.00 | 46 | 1015.8 |
| 20260506234145 | 51 | 173 | 6.0 | 12.0 | 0.00 | 0.00 | 0.00 | 46 | 1015.6 |
| 20260506233643 | 51 | 244 | 8.0 | 21.0 | 0.00 | 0.00 | 0.00 | 46 | 1015.6 |
| 20260506233139 | 51 | 200 | 5.0 | 14.0 | 0.00 | 0.00 | 0.00 | 45 | 1015.5 |
| 20260506232636 | 51 | 223 | 13.0 | 16.0 | 0.00 | 0.00 | 0.00 | 45 | 1015.4 |
| 20260506232131 | 51 | 287 | 6.0 | 12.0 | 0.00 | 0.00 | 0.00 | 45 | 1015.5 |
| 20260506231629 | 51 | 224 | 8.0 | 12.0 | 0.00 | 0.00 | 0.00 | 45 | 1015.6 |
| 20260506231127 | 52 | 220 | 6.0 | 13.0 | 0.00 | 0.00 | 0.00 | 45 | 1015.4 |
| 20260506230624 | 52 | 226 | 2.0 | 12.0 | 0.00 | 0.00 | 0.00 | 46 | 1015.5 |
| 20260506230121 | 51 | 267 | 3.0 | 13.0 | 0.00 | 0.00 | 0.00 | 45 | 1015.5 |
| 20260506225617 | 52 | 242 | 6.0 | 17.0 | 0.00 | 0.00 | 0.00 | 45 | 1015.5 |
| 20260506225114 | 52 | 206 | 4.0 | 16.0 | 0.00 | 0.00 | 0.00 | 46 | 1015.4 |
| 20260506224610 | 52 | 126 | 8.0 | 18.0 | 0.00 | 0.00 | 0.00 | 45 | 1015.1 |
| 20260506224107 | 52 | 243 | 9.0 | 13.0 | 0.00 | 0.00 | 0.00 | 45 | 1015.2 |
| 20260506223603 | 52 | 202 | 10.0 | 13.0 | 0.00 | 0.00 | 0.00 | 45 | 1015.4 |
| 20260506223059 | 52 | 251 | 7.0 | 16.0 | 0.00 | 0.00 | 0.00 | 44 | 1015.4 |
| 20260506222556 | 52 | 245 | 6.0 | 14.0 | 0.00 | 0.00 | 0.00 | 44 | 1015.0 |
| 20260506222052 | 52 | 191 | 15.0 | 16.0 | 0.00 | 0.00 | 0.00 | 44 | 1015.2 |
| 20260506221550 | 53 | 214 | 13.0 | 18.0 | 0.00 | 0.00 | 0.00 | 43 | 1015.1 |
| 20260506221048 | 52 | 181 | 4.0 | 18.0 | 0.00 | 0.00 | 0.00 | 46 | 1015.0 |
| 20260506220544 | 52 | 257 | 5.0 | 16.0 | 0.00 | 0.00 | 0.00 | 45 | 1014.8 |
| 20260506220039 | 52 | 281 | 4.0 | 17.0 | 0.00 | 0.00 | 0.00 | 44 | 1015.0 |
| 20260506215537 | 53 | 265 | 5.0 | 15.0 | 0.00 | 0.00 | 0.00 | 44 | 1014.9 |
| 20260506215032 | 53 | 202 | 4.0 | 11.0 | 0.00 | 0.00 | 0.00 | 44 | 1014.9 |
| 20260506214529 | 53 | 243 | 9.0 | 12.0 | 0.00 | 0.00 | 0.00 | 44 | 1014.9 |
| 20260506214026 | 53 | 265 | 4.0 | 14.0 | 0.00 | 0.00 | 0.00 | 44 | 1015.0 |
| 20260506213525 | 54 | 261 | 8.0 | 13.0 | 0.00 | 0.00 | 0.00 | 43 | 1014.8 |
| 20260506213021 | 56 | 258 | 5.0 | 12.0 | 0.00 | 0.00 | 0.00 | 44 | 1014.6 |
| 20260506212518 | 54 | 285 | 3.0 | 8.0 | 0.00 | 0.00 | 0.00 | 45 | 1014.8 |
| 20260506212013 | 54 | 195 | 3.0 | 16.0 | 0.00 | 0.00 | 0.00 | 43 | 1014.7 |
| 20260506211509 | 55 | 253 | 4.0 | 13.0 | 0.00 | 0.00 | 0.00 | 43 | 1014.9 |
| 20260506211007 | 54 | 227 | 5.0 | 13.0 | 0.00 | 0.00 | 0.00 | 43 | 1014.8 |
| 20260506210503 | 55 | 224 | 6.0 | 14.0 | 0.00 | 0.00 | 0.00 | 42 | 1014.8 |
| 20260506210000 | 53 | 238 | 13.0 | 13.0 | 0.00 | 0.00 | 0.00 | 43 | 1014.8 |
| 20260506205456 | 54 | 257 | 9.0 | 17.0 | 0.00 | 0.00 | 0.00 | 42 | 1014.8 |
| 20260506204952 | 53 | 202 | 4.0 | 17.0 | 0.00 | 0.00 | 0.00 | 42 | 1014.7 |
| 20260506204450 | 54 | 217 | 7.0 | 17.0 | 0.00 | 0.00 | 0.00 | 41 | 1014.7 |
| 20260506203947 | 54 | 209 | 6.0 | 12.0 | 0.00 | 0.00 | 0.00 | 41 | 1014.7 |
| 20260506203444 | 54 | 185 | 8.0 | 12.0 | 0.00 | 0.00 | 0.00 | 41 | 1014.7 |
| 20260506202941 | 54 | 204 | 12.0 | 16.0 | 0.00 | 0.00 | 0.00 | 41 | 1014.9 |
| 20260506202438 | 54 | 245 | 7.0 | 11.0 | 0.00 | 0.00 | 0.00 | 40 | 1015.0 |
| 20260506201934 | 54 | 240 | 9.0 | 16.0 | 0.00 | 0.00 | 0.00 | 40 | 1015.0 |
| 20260506201432 | 54 | 210 | 6.0 | 13.0 | 0.00 | 0.00 | 0.00 | 42 | 1014.8 |
| 20260506200928 | 54 | 208 | 5.0 | 11.0 | 0.00 | 0.00 | 0.00 | 39 | 1015.0 |
| 20260506200425 | 54 | 184 | 5.0 | 12.0 | 0.00 | 0.00 | 0.00 | 41 | 1014.9 |
| 20260506195921 | 54 | 215 | 3.0 | 13.0 | 0.00 | 0.00 | 0.00 | 40 | 1015.0 |
| 20260506195419 | 56 | 223 | 11.0 | 18.0 | 0.00 | 0.00 | 0.00 | 39 | 1015.0 |
| 20260506194915 | 55 | 210 | 7.0 | 13.0 | 0.00 | 0.00 | 0.00 | 40 | 1015.0 |
| 20260506194412 | 56 | 164 | 9.0 | 11.0 | 0.00 | 0.00 | 0.00 | 39 | 1014.9 |
| 20260506193909 | 54 | 223 | 4.0 | 13.0 | 0.00 | 0.00 | 0.00 | 40 | 1015.1 |
| 20260506193406 | 55 | 220 | 13.0 | 17.0 | 0.00 | 0.00 | 0.00 | 38 | 1015.0 |
| 20260506192903 | 55 | 177 | 7.0 | 11.0 | 0.00 | 0.00 | 0.00 | 43 | 1015.2 |
| 20260506192400 | 54 | 186 | 7.0 | 11.0 | 0.00 | 0.00 | 0.00 | 41 | 1015.3 |
| 20260506191856 | 53 | 237 | 5.0 | 14.0 | 0.00 | 0.00 | 0.00 | 41 | 1015.1 |
| 20260506191352 | 53 | 224 | 2.0 | 13.0 | 0.00 | 0.00 | 0.00 | 40 | 1015.4 |
| 20260506190850 | 53 | 271 | 4.0 | 15.0 | 0.00 | 0.00 | 0.00 | 41 | 1015.2 |
| 20260506190346 | 54 | 214 | 4.0 | 15.0 | 0.00 | 0.00 | 0.00 | 43 | 1015.4 |
| 20260506185843 | 54 | 314 | 3.0 | 11.0 | 0.00 | 0.00 | 0.00 | 41 | 1015.2 |
| 20260506185340 | 54 | 166 | 12.0 | 14.0 | 0.00 | 0.00 | 0.00 | 39 | 1015.1 |
| 20260506184837 | 54 | 192 | 10.0 | 16.0 | 0.00 | 0.00 | 0.00 | 40 | 1015.1 |
| 20260506184334 | 54 | 219 | 9.0 | 19.0 | 0.00 | 0.00 | 0.00 | 41 | 1015.1 |
| 20260506183832 | 54 | 245 | 10.0 | 14.0 | 0.00 | 0.00 | 0.00 | 40 | 1015.2 |
| 20260506183327 | 54 | 201 | 7.0 | 15.0 | 0.00 | 0.00 | 0.00 | 41 | 1015.2 |
| 20260506182824 | 54 | 211 | 13.0 | 19.0 | 0.00 | 0.00 | 0.00 | 40 | 1015.0 |
| 20260506182321 | 54 | 188 | 14.0 | 19.0 | 0.00 | 0.00 | 0.00 | 43 | 1015.4 |
| 20260506181819 | 54 | 228 | 9.0 | 15.0 | 0.00 | 0.00 | 0.00 | 42 | 1015.2 |
| 20260506181317 | 54 | 174 | 3.0 | 20.0 | 0.00 | 0.00 | 0.00 | 42 | 1015.4 |
| 20260506180814 | 54 | 197 | 18.0 | 22.0 | 0.00 | 0.00 | 0.00 | 39 | 1014.9 |
| 20260506180310 | 53 | 237 | 3.0 | 11.0 | 0.00 | 0.00 | 0.00 | 42 | 1015.1 |
| 20260506175806 | 54 | 201 | 6.0 | 18.0 | 0.00 | 0.00 | 0.00 | 38 | 1015.2 |
| 20260506175306 | 53 | 205 | 11.0 | 15.0 | 0.00 | 0.00 | 0.00 | 41 | 1015.3 |
| 20260506174800 | 54 | 185 | 10.0 | 20.0 | 0.00 | 0.00 | 0.00 | 41 | 1015.4 |
| 20260506174257 | 53 | 199 | 8.0 | 19.0 | 0.00 | 0.00 | 0.00 | 41 | 1015.7 |
| 20260506173755 | 55 | 201 | 14.0 | 18.0 | 0.00 | 0.00 | 0.00 | 40 | 1015.4 |
| 20260506173252 | 54 | 187 | 8.0 | 21.0 | 0.00 | 0.00 | 0.00 | 41 | 1015.4 |
| 20260506172748 | 53 | 192 | 9.0 | 17.0 | 0.00 | 0.00 | 0.00 | 40 | 1015.4 |
| 20260506172245 | 53 | 216 | 8.0 | 20.0 | 0.00 | 0.00 | 0.00 | 39 | 1015.5 |
| 20260506171743 | 54 | 188 | 7.0 | 23.0 | 0.00 | 0.00 | 0.00 | 39 | 1015.5 |
| 20260506171240 | 53 | 211 | 4.0 | 11.0 | 0.00 | 0.00 | 0.00 | 43 | 1015.7 |
| 20260506170738 | 53 | 221 | 5.0 | 16.0 | 0.00 | 0.00 | 0.00 | 40 | 1015.7 |
| 20260506170233 | 52 | 203 | 7.0 | 15.0 | 0.00 | 0.00 | 0.00 | 42 | 1015.7 |
| 20260506165732 | 53 | 203 | 7.0 | 16.0 | 0.00 | 0.00 | 0.00 | 39 | 1015.4 |
| 20260506165229 | 54 | 211 | 7.0 | 19.0 | 0.00 | 0.00 | 0.00 | 40 | 1015.6 |
| 20260506164726 | 53 | 211 | 6.0 | 13.0 | 0.00 | 0.00 | 0.00 | 39 | 1015.6 |
| 20260506164223 | 53 | 185 | 0.0 | 23.0 | 0.00 | 0.00 | 0.00 | 42 | 1015.8 |
| 20260506163720 | 53 | 177 | 9.0 | 15.0 | 0.00 | 0.00 | 0.00 | 39 | 1015.5 |
| 20260506163215 | 55 | 187 | 14.0 | 18.0 | 0.00 | 0.00 | 0.00 | 39 | 1015.8 |
| 20260506162711 | 54 | 183 | 10.0 | 19.0 | 0.00 | 0.00 | 0.00 | 39 | 1015.5 |
| 20260506162208 | 54 | 225 | 5.0 | 13.0 | 0.00 | 0.00 | 0.00 | 41 | 1015.4 |
| 20260506161706 | 53 | 229 | 10.0 | 15.0 | 0.00 | 0.00 | 0.00 | 38 | 1015.6 |
| 20260506161203 | 53 | 193 | 13.0 | 18.0 | 0.00 | 0.00 | 0.00 | 40 | 1015.9 |
| 20260506160701 | 53 | 182 | 8.0 | 14.0 | 0.00 | 0.00 | 0.00 | 39 | 1015.6 |
| 20260506160157 | 51 | 197 | 15.0 | 15.0 | 0.00 | 0.00 | 0.00 | 43 | 1015.6 |
| 20260506155655 | 52 | 185 | 9.0 | 15.0 | 0.00 | 0.00 | 0.00 | 42 | 1015.8 |
| 20260506155152 | 52 | 231 | 11.0 | 11.0 | 0.00 | 0.00 | 0.00 | 43 | 1015.4 |
| 20260506153254 | 51 | 165 | 3.0 | 15.0 | 0.00 | 0.00 | 0.00 | 46 | 1015.6 |
| 20260506152751 | 51 | 182 | 11.0 | 13.0 | 0.00 | 0.00 | 0.00 | 47 | 1015.7 |
| 20260506152248 | 52 | 185 | 4.0 | 13.0 | 0.00 | 0.00 | 0.00 | 44 | 1015.7 |
| 20260506151747 | 51 | 180 | 10.0 | 10.0 | 0.00 | 0.00 | 0.00 | 48 | 1015.6 |
| 20260506151243 | 51 | 213 | 6.0 | 14.0 | 0.00 | 0.00 | 0.00 | 48 | 1015.9 |
| 20260506150740 | 51 | 126 | 4.0 | 14.0 | 0.00 | 0.00 | 0.00 | 47 | 1015.9 |
| 20260506150237 | 51 | 232 | 3.0 | 12.0 | 0.00 | 0.00 | 0.00 | 47 | 1016.0 |
| 20260506145734 | 50 | 183 | 9.0 | 15.0 | 0.00 | 0.00 | 0.00 | 48 | 1015.8 |
| 20260506145230 | 51 | 199 | 6.0 | 17.0 | 0.00 | 0.00 | 0.00 | 50 | 1015.8 |
| 20260506144728 | 50 | 161 | 6.0 | 16.0 | 0.00 | 0.00 | 0.00 | 47 | 1015.8 |
| 20260506144225 | 50 | 189 | 4.0 | 17.0 | 0.00 | 0.00 | 0.00 | 48 | 1015.8 |
| 20260506143722 | 51 | 203 | 12.0 | 15.0 | 0.00 | 0.00 | 0.00 | 47 | 1015.8 |
| 20260506143220 | 51 | 197 | 11.0 | 13.0 | 0.00 | 0.00 | 0.00 | 47 | 1015.8 |
| 20260506142718 | 50 | 242 | 4.0 | 14.0 | 0.00 | 0.00 | 0.00 | 49 | 1015.8 |
| 20260506142216 | 50 | 206 | 5.0 | 12.0 | 0.00 | 0.00 | 0.00 | 48 | 1016.0 |
| 20260506141714 | 50 | 145 | 4.0 | 12.0 | 0.00 | 0.00 | 0.00 | 52 | 1015.8 |
| 20260506141212 | 50 | 207 | 11.0 | 13.0 | 0.00 | 0.00 | 0.00 | 47 | 1015.8 |
| 20260506140709 | 50 | 207 | 9.0 | 20.0 | 0.00 | 0.00 | 0.00 | 48 | 1015.8 |
| 20260506140206 | 50 | 217 | 4.0 | 11.0 | 0.00 | 0.00 | 0.00 | 46 | 1015.7 |
| 20260506135703 | 51 | 173 | 8.0 | 12.0 | 0.00 | 0.00 | 0.00 | 48 | 1015.8 |
| 20260506135159 | 50 | 184 | 7.0 | 12.0 | 0.00 | 0.00 | 0.00 | 50 | 1015.6 |
| 20260506134656 | 50 | 155 | 6.0 | 8.0 | 0.00 | 0.00 | 0.00 | 50 | 1015.7 |
| 20260506134152 | 49 | 203 | 6.0 | 8.0 | 0.00 | 0.00 | 0.00 | 50 | 1015.5 |
| 20260506133649 | 49 | 184 | 5.0 | 8.0 | 0.00 | 0.00 | 0.00 | 51 | 1015.4 |
| 20260506133146 | 49 | 143 | 7.0 | 7.0 | 0.00 | 0.00 | 0.00 | 55 | 1015.6 |
| 20260506132643 | 48 | 171 | 4.0 | 5.0 | 0.00 | 0.00 | 0.00 | 54 | 1015.3 |
| 20260506132140 | 48 | 173 | 4.0 | 6.0 | 0.00 | 0.00 | 0.00 | 53 | 1015.4 |
| 20260506131638 | 48 | 169 | 6.0 | 8.0 | 0.00 | 0.00 | 0.00 | 54 | 1015.3 |
| 20260506131133 | 48 | 128 | 6.0 | 8.0 | 0.00 | 0.00 | 0.00 | 53 | 1015.3 |
| 20260506130630 | 48 | 148 | 4.0 | 6.0 | 0.00 | 0.00 | 0.00 | 54 | 1015.1 |
| 20260506130128 | 48 | 92 | 3.0 | 8.0 | 0.00 | 0.00 | 0.00 | 57 | 1015.3 |
| 20260506125626 | 48 | 140 | 3.0 | 6.0 | 0.00 | 0.00 | 0.00 | 58 | 1015.1 |
| 20260506125123 | 47 | 155 | 3.0 | 6.0 | 0.00 | 0.00 | 0.00 | 62 | 1015.1 |
| 20260506124621 | 47 | 148 | 3.0 | 5.0 | 0.00 | 0.00 | 0.00 | 63 | 1015.0 |
| 20260506124119 | 47 | 124 | 3.0 | 7.0 | 0.00 | 0.00 | 0.00 | 63 | 1015.0 |
| 20260506123616 | 46 | 171 | 3.0 | 5.0 | 0.00 | 0.00 | 0.00 | 67 | 1015.0 |
| 20260506123115 | 46 | 148 | 3.0 | 4.0 | 0.00 | 0.00 | 0.00 | 67 | 1015.2 |
| 20260506122611 | 46 | 173 | 1.0 | 3.0 | 0.00 | 0.00 | 0.00 | 70 | 1014.8 |
| 20260506122109 | 45 | 156 | 2.0 | 5.0 | 0.00 | 0.00 | 0.00 | 70 | 1014.8 |
| 20260506121606 | 45 | 159 | 4.0 | 4.0 | 0.00 | 0.00 | 0.00 | 73 | 1014.8 |
| 20260506121102 | 45 | 110 | 2.0 | 3.0 | 0.00 | 0.00 | 0.00 | 74 | 1014.5 |
| 20260506120601 | 44 | 125 | 2.0 | 3.0 | 0.00 | 0.00 | 0.00 | 77 | 1014.4 |
| 20260506120057 | 43 | 111 | 2.0 | 3.0 | 0.00 | 0.00 | 0.00 | 81 | 1014.6 |
| 20260506115556 | 42 | 106 | 2.0 | 3.0 | 0.00 | 0.00 | 0.00 | 85 | 1014.6 |
| 20260506115054 | 41 | 97 | 2.0 | 3.0 | 0.00 | 0.00 | 0.00 | 89 | 1014.5 |
| 20260506114551 | 40 | 110 | 2.0 | 3.0 | 0.00 | 0.00 | 0.00 | 93 | 1014.7 |
| 20260506114049 | 39 | 103 | 2.0 | 3.0 | 0.00 | 0.00 | 0.00 | 95 | 1014.7 |
| 20260506113547 | 38 | 88 | 1.0 | 3.0 | 0.00 | 0.00 | 0.00 | 96 | 1014.4 |
| 20260506113044 | 37 | 141 | 2.0 | 3.0 | 0.00 | 0.00 | 0.00 | 97 | 1014.5 |
| 20260506112540 | 36 | 112 | 2.0 | 3.0 | 0.00 | 0.00 | 0.00 | 97 | 1014.5 |
| 20260506112038 | 35 | 103 | 2.0 | 3.0 | 0.00 | 0.00 | 0.00 | 98 | 1014.7 |
| 20260506111535 | 35 | 120 | 1.0 | 3.0 | 0.00 | 0.00 | 0.00 | 98 | 1014.6 |
| 20260506111032 | 35 | 120 | 3.0 | 3.0 | 0.00 | 0.00 | 0.00 | 98 | 1014.6 |
| 20260506110530 | 35 | 112 | 3.0 | 4.0 | 0.00 | 0.00 | 0.00 | 98 | 1014.4 |
| 20260506110027 | 34 | 133 | 2.0 | 3.0 | 0.00 | 0.00 | 0.00 | 98 | 1014.3 |
| 20260506105523 | 34 | 140 | 2.0 | 3.0 | 0.00 | 0.00 | 0.00 | 97 | 1014.3 |
| 20260506105021 | 34 | 116 | 2.0 | 3.0 | 0.00 | 0.00 | 0.00 | 97 | 1014.3 |
| 20260506104518 | 34 | 124 | 1.0 | 3.0 | 0.00 | 0.00 | 0.00 | 97 | 1014.2 |
| 20260506104016 | 33 | 109 | 2.0 | 3.0 | 0.00 | 0.00 | 0.00 | 95 | 1013.7 |
| 20260506103513 | 33 | 115 | 1.0 | 3.0 | 0.00 | 0.00 | 0.00 | 95 | 1013.8 |
| 20260506103009 | 33 | 115 | 0.0 | 2.0 | 0.00 | 0.00 | 0.00 | 94 | 1013.8 |
| 20260506102508 | 33 | 85 | 2.0 | 3.0 | 0.00 | 0.00 | 0.00 | 94 | 1013.6 |
| 20260506102005 | 34 | 86 | 1.0 | 2.0 | 0.00 | 0.00 | 0.00 | 95 | 1013.9 |
| 20260506101501 | 34 | 119 | 1.0 | 3.0 | 0.00 | 0.00 | 0.00 | 95 | 1013.6 |
| 20260506100959 | 34 | 89 | 2.0 | 3.0 | 0.00 | 0.00 | 0.00 | 93 | 1013.7 |
| 20260506100457 | 34 | 99 | 1.0 | 2.0 | 0.00 | 0.00 | 0.00 | 93 | 1013.9 |
| 20260506095954 | 34 | 89 | 1.0 | 3.0 | 0.00 | 0.00 | 0.00 | 93 | 1013.8 |
| 20260506095453 | 34 | 108 | 2.0 | 2.0 | 0.00 | 0.00 | 0.00 | 92 | 1013.7 |
| 20260506094948 | 33 | 87 | 1.0 | 2.0 | 0.00 | 0.00 | 0.00 | 90 | 1013.7 |
| 20260506094448 | 33 | 115 | 1.0 | 3.0 | 0.00 | 0.00 | 0.00 | 90 | 1013.7 |
| 20260506093945 | 34 | 82 | 1.0 | 2.0 | 0.00 | 0.00 | 0.00 | 90 | 1013.6 |
| 20260506093443 | 34 | 87 | 0.0 | 2.0 | 0.00 | 0.00 | 0.00 | 90 | 1013.8 |
| 20260506092940 | 34 | 117 | 2.0 | 2.0 | 0.00 | 0.00 | 0.00 | 90 | 1013.7 |
| 20260506092438 | 34 | 93 | 1.0 | 2.0 | 0.00 | 0.00 | 0.00 | 89 | 1013.8 |
| 20260506091934 | 34 | 114 | 0.0 | 2.0 | 0.00 | 0.00 | 0.00 | 90 | 1014.0 |
| 20260506091432 | 34 | 117 | 2.0 | 2.0 | 0.00 | 0.00 | 0.00 | 89 | 1013.9 |
| 20260506090929 | 35 | 102 | 1.0 | 2.0 | 0.00 | 0.00 | 0.00 | 88 | 1013.9 |
| 20260506090427 | 34 | 102 | 2.0 | 3.0 | 0.00 | 0.00 | 0.00 | 88 | 1013.9 |
| 20260506085923 | 35 | 116 | 2.0 | 2.0 | 0.00 | 0.00 | 0.00 | 88 | 1014.0 |
| 20260506085420 | 35 | 129 | 0.0 | 2.0 | 0.00 | 0.00 | 0.00 | 89 | 1013.9 |
| 20260506084917 | 34 | 110 | 0.0 | 2.0 | 0.00 | 0.00 | 0.00 | 89 | 1013.8 |
| 20260506084414 | 34 | 113 | 1.0 | 2.0 | 0.00 | 0.00 | 0.00 | 88 | 1013.8 |
| 20260506083909 | 34 | 89 | 0.0 | 2.0 | 0.00 | 0.00 | 0.00 | 87 | 1013.9 |
| 20260506083408 | 35 | 93 | 1.0 | 2.0 | 0.00 | 0.00 | 0.00 | 86 | 1013.6 |
| 20260506082905 | 35 | 113 | 1.0 | 2.0 | 0.00 | 0.00 | 0.00 | 86 | 1013.7 |
| 20260506082401 | 35 | 116 | 1.0 | 2.0 | 0.00 | 0.00 | 0.00 | 87 | 1013.5 |
| 20260506081857 | 35 | 89 | 0.0 | 2.0 | 0.00 | 0.00 | 0.00 | 85 | 1013.5 |
| 20260506081355 | 36 | 97 | 1.0 | 2.0 | 0.00 | 0.00 | 0.00 | 86 | 1013.5 |
| 20260506080852 | 35 | 112 | 0.0 | 2.0 | 0.00 | 0.00 | 0.00 | 86 | 1013.5 |
| 20260506080349 | 35 | 115 | 0.0 | 2.0 | 0.00 | 0.00 | 0.00 | 87 | 1013.6 |
| 20260506073333 | 36 | 106 | 1.0 | 2.0 | 0.00 | 0.00 | 0.00 | 85 | 1013.3 |
| 20260506072824 | 37 | 99 | 1.0 | 2.0 | 0.00 | 0.00 | 0.00 | 83 | 1013.4 |
| 20260506072322 | 37 | 98 | 2.0 | 2.0 | 0.00 | 0.00 | 0.00 | 83 | 1013.3 |
| 20260506071820 | 37 | 76 | 1.0 | 2.0 | 0.00 | 0.00 | 0.00 | 82 | 1013.3 |
| 20260506071318 | 38 | 91 | 1.0 | 2.0 | 0.00 | 0.00 | 0.00 | 79 | 1013.2 |
| 20260506070814 | 38 | 94 | 1.0 | 2.0 | 0.00 | 0.00 | 0.00 | 78 | 1013.3 |
| 20260506070311 | 38 | 78 | 1.0 | 3.0 | 0.00 | 0.00 | 0.00 | 76 | 1013.3 |
| 20260506062248 | 41 | 87 | 2.0 | 2.0 | 0.00 | 0.00 | 0.00 | 67 | 1013.6 |
| 20260506061744 | 41 | 104 | 0.0 | 2.0 | 0.00 | 0.00 | 0.00 | 65 | 1013.6 |
| 20260506061241 | 42 | 98 | 0.0 | 2.0 | 0.00 | 0.00 | 0.00 | 63 | 1013.3 |
| 20260506060740 | 42 | 83 | 1.0 | 2.0 | 0.00 | 0.00 | 0.00 | 63 | 1013.5 |
| 20260506060237 | 43 | 46 | 1.0 | 3.0 | 0.00 | 0.00 | 0.00 | 62 | 1013.2 |
| 20260506051209 | 46 | 43 | 2.0 | 5.0 | 0.00 | 0.00 | 0.00 | 58 | 1013.4 |
| 20260506050707 | 46 | 48 | 2.0 | 5.0 | 0.00 | 0.00 | 0.00 | 57 | 1013.0 |
| 20260506050204 | 46 | 14 | 0.0 | 6.0 | 0.00 | 0.00 | 0.00 | 57 | 1013.0 |
| 20260506044655 | 46 | 33 | 3.0 | 7.0 | 0.00 | 0.00 | 0.00 | 56 | 1013.3 |
| 20260506044151 | 46 | 15 | 2.0 | 3.0 | 0.00 | 0.00 | 0.00 | 56 | 1013.1 |
| 20260506043649 | 47 | 32 | 2.0 | 7.0 | 0.00 | 0.00 | 0.00 | 55 | 1013.3 |
| 20260506043146 | 47 | 12 | 2.0 | 4.0 | 0.00 | 0.00 | 0.00 | 54 | 1013.1 |
| 20260506042646 | 47 | 350 | 1.0 | 8.0 | 0.00 | 0.00 | 0.00 | 53 | 1013.2 |
| 20260506042143 | 47 | 324 | 1.0 | 4.0 | 0.00 | 0.00 | 0.00 | 55 | 1013.1 |
| 20260506041641 | 46 | 49 | 1.0 | 3.0 | 0.00 | 0.00 | 0.00 | 56 | 1012.8 |
| 20260506041138 | 46 | 55 | 0.0 | 3.0 | 0.00 | 0.00 | 0.00 | 56 | 1012.9 |
| 20260506040635 | 47 | 68 | 0.0 | 2.0 | 0.00 | 0.00 | 0.00 | 56 | 1012.7 |
| 20260506040132 | 47 | 20 | 2.0 | 3.0 | 0.00 | 0.00 | 0.00 | 55 | 1013.0 |
| 20260506035629 | 47 | 60 | 1.0 | 2.0 | 0.00 | 0.00 | 0.00 | 54 | 1012.8 |
| 20260506035126 | 48 | 339 | 0.0 | 3.0 | 0.00 | 0.00 | 0.00 | 53 | 1012.9 |
| 20260506034623 | 48 | 39 | 1.0 | 4.0 | 0.00 | 0.00 | 0.00 | 53 | 1012.8 |
| 20260506034120 | 48 | 69 | 2.0 | 3.0 | 0.00 | 0.00 | 0.00 | 53 | 1012.4 |
| 20260506033617 | 48 | 39 | 3.0 | 4.0 | 0.00 | 0.00 | 0.00 | 53 | 1012.5 |
| 20260506033114 | 48 | 60 | 2.0 | 4.0 | 0.00 | 0.00 | 0.00 | 52 | 1012.0 |
| 20260506032612 | 49 | 67 | 0.0 | 3.0 | 0.00 | 0.00 | 0.00 | 51 | 1012.3 |
| 20260506032108 | 49 | 25 | 1.0 | 5.0 | 0.00 | 0.00 | 0.00 | 49 | 1012.5 |
| 20260506031605 | 49 | 59 | 0.0 | 4.0 | 0.00 | 0.00 | 0.00 | 50 | 1012.5 |
| 20260506031102 | 49 | 147 | 0.0 | 5.0 | 0.00 | 0.00 | 0.00 | 49 | 1012.5 |
| 20260506030601 | 49 | 40 | 2.0 | 3.0 | 0.00 | 0.00 | 0.00 | 49 | 1012.5 |
| 20260506030057 | 50 | 0 | 1.0 | 4.0 | 0.00 | 0.00 | 0.00 | 48 | 1012.5 |
| 20260506025554 | 50 | 51 | 0.0 | 3.0 | 0.00 | 0.00 | 0.00 | 48 | 1012.5 |
| 20260506025050 | 50 | 132 | 2.0 | 4.0 | 0.00 | 0.00 | 0.00 | 48 | 1012.2 |
| 20260506024548 | 50 | 343 | 1.0 | 5.0 | 0.00 | 0.00 | 0.00 | 47 | 1012.0 |
| 20260506024044 | 50 | 293 | 1.0 | 7.0 | 0.00 | 0.00 | 0.00 | 47 | 1011.9 |
| 20260506023540 | 51 | 316 | 2.0 | 4.0 | 0.00 | 0.00 | 0.00 | 46 | 1012.0 |
| 20260506023038 | 51 | 347 | 3.0 | 8.0 | 0.00 | 0.00 | 0.00 | 46 | 1011.9 |
| 20260506022535 | 51 | 294 | 2.0 | 7.0 | 0.00 | 0.00 | 0.00 | 47 | 1012.0 |
| 20260506022032 | 51 | 247 | 2.0 | 5.0 | 0.00 | 0.00 | 0.00 | 49 | 1012.0 |
| 20260506021530 | 50 | 285 | 2.0 | 5.0 | 0.00 | 0.00 | 0.00 | 52 | 1011.8 |
| 20260506021027 | 50 | 22 | 0.0 | 3.0 | 0.00 | 0.00 | 0.00 | 55 | 1011.7 |
| 20260506020525 | 50 | 112 | 0.0 | 3.0 | 0.00 | 0.00 | 0.00 | 53 | 1011.6 |
| 20260506020022 | 50 | 151 | 0.0 | 2.0 | 0.00 | 0.00 | 0.00 | 52 | 1011.4 |
| 20260506015519 | 50 | 229 | 0.0 | 2.0 | 0.00 | 0.00 | 0.00 | 52 | 1011.3 |
| 20260506015016 | 50 | 78 | 2.0 | 2.0 | 0.00 | 0.00 | 0.00 | 52 | 1011.3 |
| 20260506014513 | 50 | 71 | 0.0 | 2.0 | 0.00 | 0.00 | 0.00 | 51 | 1011.3 |
| 20260506014009 | 50 | 170 | 1.0 | 3.0 | 0.00 | 0.00 | 0.00 | 50 | 1010.9 |
| 20260506013507 | 50 | 62 | 0.0 | 2.0 | 0.00 | 0.00 | 0.00 | 48 | 1010.9 |
| 20260506013004 | 51 | 150 | 0.0 | 2.0 | 0.00 | 0.00 | 0.00 | 48 | 1011.0 |
| 20260506012500 | 50 | 113 | 1.0 | 3.0 | 0.00 | 0.00 | 0.00 | 48 | 1011.0 |
| 20260506011957 | 51 | 150 | 1.0 | 3.0 | 0.00 | 0.00 | 0.00 | 47 | 1011.0 |